Wind_Speed
35 34 33 32 32 31 30 28 26 27 29 26 25 27 27 26 24 21 19 19 18 17 17 17 19 20 19 19 18 20 24 25 25 27 28 28 27 27 28 28 28 28 26 24 22 23 24 25 25 25 25 24 23 20 19 18 14 10 9 12 16 22 27 33 36 35 33 32 30 28 28 29 28 27 25 24 21 18 14 13 14 16 17 20 17 11 9
34 33 33 32 31 30 29 28 26 26 28 27 25 26 27 26 25 22 20 19 19 19 18 19 21 22 21 20 19 21 25 25 25 26 27 27 27 27 26 26 27 29 29 26 24 25 25 26 27 27 26 25 24 23 21 19 16 12 9 8 12 19 26 32 35 35 35 35 31 27 27 30 30 26 24 23 21 19 17 16 18 18 18 20 16 11 13
33 33 32 31 31 30 29 28 26 26 28 28 26 27 27 27 25 24 22 21 20 20 19 19 22 23 23 21 20 23 26 27 25 26 27 27 27 28 27 26 26 27 28 27 25 25 26 27 27 27 25 21 22 23 20 18 16 14 13 11 11 16 22 30 35 35 36 36 32 27 25 27 28 26 24 22 21 20 19 20 21 21 21 20 17 14 16
32 32 32 31 30 30 30 29 26 25 27 28 27 27 28 27 26 25 23 22 21 21 20 20 22 24 24 23 23 24 27 28 27 26 28 28 28 28 28 27 25 25 25 25 24 24 26 27 26 26 24 20 21 22 19 17 16 15 16 15 14 15 20 29 33 32 33 31 27 25 23 24 25 25 25 23 22 21 22 22 23 23 21 18 16 16 17
31 31 31 30 30 30 30 29 27 25 27 28 28 28 28 27 26 25 24 23 22 22 22 21 22 24 25 25 24 25 28 30 28 27 28 29 28 28 29 28 27 26 24 24 23 22 25 26 25 25 24 21 22 22 19 19 18 17 18 16 15 17 21 28 32 31 28 25 23 22 22 22 23 26 26 25 23 22 22 22 22 21 19 16 16 17 18
29 29 29 30 30 30 30 30 28 26 26 28 28 28 28 27 27 26 25 24 23 23 23 22 22 24 26 26 26 27 28 29 29 28 28 29 29 29 30 29 28 28 26 24 22 21 24 25 23 24 24 22 23 22 21 21 19 18 17 15 15 17 19 26 32 30 27 25 23 22 21 21 23 26 27 26 25 24 22 22 22 22 19 16 17 18 19
26 27 27 28 29 29 30 30 28 26 26 28 28 28 28 28 27 27 25 25 24 24 23 23 23 24 26 28 28 28 29 29 29 29 28 29 29 29 30 31 30 29 29 27 24 21 23 24 23 23 23 21 23 24 22 22 20 18 16 14 15 18 19 23 29 31 29 27 24 22 22 23 24 26 28 26 24 23 22 22 23 23 22 19 18 18 21
25 25 25 26 27 28 29 30 29 26 26 28 28 28 28 28 28 27 26 25 26 25 24 24 25 25 26 27 28 28 29 29 30 29 28 29 29 29 30 32 32 31 30 30 28 24 24 25 23 22 20 19 22 25 24 22 19 17 16 14 15 19 19 21 27 29 29 29 26 23 23 24 22 21 23 22 18 18 19 20 21 22 21 20 18 18 21
26 25 25 25 26 26 28 29 29 26 26 27 28 28 28 28 28 27 27 26 26 26 25 25 26 26 25 26 28 29 29 30 30 30 28 28 29 29 30 31 32 32 32 32 32 28 26 26 25 22 19 18 20 23 23 22 20 18 17 16 16 19 19 19 23 25 24 26 26 25 24 24 21 18 17 17 16 16 17 17 18 19 18 19 18 19 23
26 26 25 26 26 26 28 29 28 27 26 27 28 28 28 28 28 28 27 27 26 26 26 26 27 27 25 25 27 29 30 30 30 30 30 28 28 29 29 29 29 30 31 32 33 31 28 28 27 25 21 18 17 20 20 20 19 19 18 18 18 19 17 16 19 20 19 20 24 26 26 26 25 22 19 18 18 19 19 19 20 20 20 21 21 23 27
25 26 26 27 27 27 29 30 29 27 27 27 28 28 28 28 28 28 28 27 27 27 26 27 28 28 26 26 27 28 29 30 31 31 30 29 29 29 29 29 28 28 28 29 32 33 32 29 28 27 25 20 16 17 19 20 19 19 19 18 17 17 15 13 15 17 16 16 18 22 24 26 27 26 24 22 21 22 23 24 24 24 24 24 25 27 28
26 26 26 27 28 28 29 31 30 28 27 27 28 29 29 29 29 29 28 28 28 28 27 26 27 28 27 27 27 26 28 29 30 31 31 30 30 29 29 30 28 27 26 26 27 30 31 29 28 29 27 23 17 17 20 21 19 19 19 18 16 15 15 14 14 15 16 17 18 19 21 22 24 26 27 27 27 26 26 27 27 27 26 26 26 27 26
27 27 27 27 28 29 30 31 31 30 28 28 28 29 30 29 30 30 29 29 28 29 28 26 27 28 28 28 27 26 27 28 30 31 31 31 31 31 30 30 29 28 26 25 25 27 29 29 30 30 29 25 20 18 20 21 22 22 21 19 18 15 14 15 16 17 18 20 20 21 21 22 24 25 26 27 29 29 29 30 30 30 30 29 28 26 22
27 27 27 28 28 28 29 30 31 31 29 28 29 29 30 30 31 31 31 30 29 29 29 27 27 28 29 28 27 26 26 27 29 31 32 32 31 31 31 30 30 28 26 26 27 28 28 29 31 31 31 28 24 21 21 22 24 25 22 20 19 18 17 18 19 20 21 22 24 24 25 27 29 29 28 28 29 29 31 32 33 34 33 31 29 26 23
27 27 27 28 29 29 28 29 31 31 29 28 29 29 30 30 31 32 32 31 30 30 29 28 28 29 30 29 28 27 27 27 28 30 32 32 32 32 31 31 31 30 28 28 30 30 29 29 31 31 32 30 27 24 24 24 26 27 25 23 22 21 22 22 21 21 22 23 24 26 28 30 31 32 31 31 31 31 33 34 34 33 31 28 26 25 24
27 27 27 28 29 30 29 29 31 31 30 29 29 30 30 30 30 32 33 33 32 31 30 29 29 29 29 29 28 27 27 27 28 30 31 32 33 33 32 31 31 30 29 30 32 33 31 31 32 33 33 32 29 26 25 25 26 28 29 27 24 23 24 25 25 24 23 23 24 26 27 29 31 32 32 33 33 34 35 35 32 30 28 26 25 25 25
27 27 27 28 29 30 30 30 31 31 31 29 29 30 30 30 30 32 33 34 33 32 31 31 30 30 30 30 29 28 27 28 28 29 30 31 33 33 33 32 31 31 31 30 32 34 35 34 35 35 35 34 33 29 26 24 25 27 29 29 28 26 25 25 25 25 25 25 26 28 28 29 30 31 32 32 33 35 36 35 31 30 29 29 27 26 25
26 26 27 27 29 31 31 31 31 32 32 31 30 29 30 31 31 31 33 34 34 33 33 31 31 30 30 30 30 29 28 28 29 29 29 30 32 34 34 33 32 31 31 31 32 35 37 39 38 37 36 36 35 32 29 27 25 25 26 28 29 29 27 26 26 26 25 25 26 27 27 28 29 30 31 31 33 35 34 32 30 29 28 26 25 24 23
28 27 27 27 29 31 32 32 31 32 33 32 31 30 30 31 32 32 33 34 35 35 34 32 32 32 30 30 30 29 28 29 29 29 28 29 31 33 34 34 32 31 31 32 32 33 37 41 42 39 37 37 36 34 33 31 29 27 25 26 28 29 29 28 27 26 25 24 25 25 26 26 26 27 28 30 33 34 31 28 27 25 23 21 20 20 21
29 29 28 28 29 30 32 32 32 32 33 34 32 31 30 31 32 32 32 34 35 36 35 34 33 32 30 30 31 30 29 29 29 29 29 29 30 32 33 34 33 31 31 32 33 33 35 40 43 41 40 40 39 37 35 33 32 31 30 29 29 29 29 28 28 27 25 25 25 25 25 25 25 25 27 28 29 30 28 25 24 23 20 18 19 20 21
30 30 29 29 30 30 32 33 33 33 34 34 34 32 31 32 33 33 33 33 35 36 36 35 33 32 31 31 31 31 30 30 29 29 29 29 29 30 32 33 34 33 32 32 34 35 36 39 43 43 41 41 41 40 38 35 33 33 33 32 32 32 32 31 29 28 27 26 26 26 26 27 27 28 30 28 25 25 25 24 23 22 20 18 19 20 21
30 30 30 30 31 31 32 33 33 34 34 35 35 34 32 32 33 34 33 33 35 37 37 35 34 33 32 32 33 32 30 30 30 29 29 29 29 29 29 31 32 33 33 32 33 35 36 39 42 44 44 43 43 42 41 39 37 37 36 35 34 34 34 33 32 31 30 28 28 28 28 29 30 31 30 27 23 21 22 23 23 22 21 21 21 21 22
31 31 30 30 30 32 33 34 34 34 35 35 35 35 34 33 34 34 34 34 35 37 38 37 35 34 34 34 34 32 30 30 30 29 29 29 29 28 28 29 30 31 32 32 32 34 36 37 40 42 44 45 45 44 44 44 43 42 41 39 37 36 36 36 35 34 33 32 32 32 32 32 32 31 29 27 24 22 21 21 22 22 23 24 24 25 26
33 32 32 31 31 31 32 33 34 35 35 35 35 36 35 34 34 35 35 35 35 37 39 38 36 35 35 35 34 32 31 31 30 29 28 28 27 27 28 28 27 28 29 30 31 33 34 35 37 39 43 46 47 48 48 48 47 46 44 43 41 40 39 38 37 36 36 35 34 34 33 32 31 28 27 27 26 25 24 24 25 25 26 27 28 29 30
35 34 34 33 33 33 33 34 34 35 36 35 35 36 36 35 35 35 36 36 36 38 40 39 37 37 37 36 34 33 33 31 30 28 28 28 27 27 26 26 26 26 26 27 30 31 32 33 34 36 40 44 46 49 50 50 51 50 48 46 44 42 41 40 38 38 38 35 34 33 31 30 28 26 25 25 26 27 28 28 29 30 30 31 31 32 33
37 37 36 35 35 35 35 35 35 36 36 36 35 36 37 36 36 36 36 37 36 38 40 39 38 39 38 36 35 35 33 31 29 29 29 29 28 28 26 24 25 26 26 26 27 29 31 32 32 33 35 36 40 48 53 53 52 50 49 48 46 42 40 39 37 35 34 32 31 30 30 29 28 26 25 25 24 25 26 27 28 29 30 31 32 32 33
38 38 38 37 37 37 37 37 37 37 37 37 37 37 37 37 36 36 37 37 38 39 40 39 40 40 39 37 37 36 33 31 30 30 29 29 28 28 27 25 25 25 25 25 26 27 29 30 30 31 31 26 25 33 42 48 50 48 45 44 42 38 36 34 33 31 31 30 30 29 29 30 29 27 26 26 25 26 26 26 27 28 28 29 29 29 29
39 39 39 39 39 39 39 38 38 39 39 38 38 38 38 38 37 37 38 39 40 40 40 40 42 42 39 38 39 36 33 32 32 31 30 30 29 27 27 26 25 24 23 24 25 26 27 27 28 31 32 25 17 16 21 30 38 40 37 35 35 34 32 31 31 31 31 30 30 29 30 30 29 27 26 25 24 25 25 26 26 27 27 26 26 25 25
39 39 40 40 40 41 41 40 40 40 40 40 40 40 40 40 39 38 39 40 41 41 40 41 44 43 40 40 40 37 34 33 33 31 31 31 30 29 28 26 26 25 24 24 24 23 23 24 25 27 29 26 20 16 18 22 28 32 32 32 31 31 31 32 32 33 32 31 30 30 30 29 28 26 24 22 22 22 23 24 24 24 24 24 23 22 22
39 40 41 41 42 42 43 43 43 43 42 42 42 42 43 43 41 40 40 41 41 41 41 42 45 44 42 41 40 38 35 35 33 32 31 31 30 30 29 28 27 26 25 24 22 21 21 21 21 22 24 25 23 21 22 23 25 28 30 31 31 32 33 33 33 33 32 31 30 29 29 27 26 24 23 23 23 23 24 24 24 24 23 22 22 22 23
40 40 41 42 43 44 45 45 45 45 45 46 45 45 45 45 43 41 41 42 42 42 41 43 45 44 42 42 41 39 37 35 34 33 31 30 29 30 30 29 29 27 25 23 22 22 23 23 22 22 23 25 26 26 26 26 27 29 30 31 32 33 34 33 33 32 31 30 29 28 27 26 26 26 26 26 25 25 25 25 24 24 22 21 21 22 23
40 41 42 43 44 45 46 46 46 47 47 47 47 46 46 46 44 42 41 42 43 42 42 44 46 45 43 43 42 40 37 35 34 33 32 30 30 30 30 30 30 30 28 26 25 24 24 25 24 23 24 26 27 28 28 29 30 31 32 32 33 33 33 32 32 31 30 30 29 28 27 27 26 27 27 27 26 26 26 25 25 24 23 22 22 23 23
41 42 43 44 45 45 46 46 45 46 46 47 47 47 47 47 46 43 42 43 43 43 43 45 47 46 45 44 43 41 38 36 35 34 32 31 31 31 30 30 31 31 30 29 27 26 25 25 25 25 25 26 27 28 29 30 31 31 31 32 32 32 31 31 30 30 29 29 28 28 28 27 27 27 27 27 27 27 26 26 26 26 25 24 24 24 25
41 41 42 42 43 43 43 43 43 44 45 46 47 47 48 48 46 44 44 44 44 43 44 46 48 47 46 45 43 41 39 38 37 35 34 32 32 31 31 30 31 31 30 30 29 28 27 27 27 27 27 27 28 28 27 28 29 29 30 30 30 29 28 28 28 29 29 29 29 28 28 27 27 26 27 27 27 27 27 27 27 27 26 26 25 25 25
39 39 39 39 39 39 40 40 40 41 42 44 45 46 46 47 47 46 45 46 45 44 44 46 48 48 46 44 43 42 40 39 38 36 35 34 33 32 31 31 31 31 30 30 30 29 28 28 29 29 29 28 28 26 25 25 26 27 28 28 28 27 27 27 28 28 29 29 29 29 28 27 27 27 27 28 28 27 27 27 28 28 28 27 26 26 26
36 35 35 35 35 35 36 37 37 38 40 42 42 43 45 46 47 47 47 47 46 45 45 47 49 49 47 45 43 43 42 40 38 37 36 35 34 33 33 32 31 31 30 30 30 30 30 30 30 29 29 28 26 24 23 24 25 26 27 27 27 27 28 28 29 28 28 28 28 28 27 26 26 26 27 27 27 27 27 28 29 29 29 29 28 27 26
32 32 32 32 32 32 33 34 35 36 38 39 40 41 43 46 47 47 48 47 46 45 46 47 49 49 48 45 44 43 42 41 39 38 38 36 35 35 34 33 32 31 30 29 29 29 30 30 30 29 28 26 25 24 24 25 26 27 27 27 28 28 29 29 29 29 28 28 27 28 27 27 27 27 27 27 27 28 28 28 29 30 30 30 29 28 28
29 29 29 30 30 31 32 33 34 35 36 37 38 39 42 45 47 48 48 48 46 46 46 47 48 48 47 45 44 43 42 41 40 39 38 38 37 37 36 35 34 32 30 28 28 28 27 27 26 26 26 25 24 24 24 25 26 28 28 28 28 28 29 29 29 29 29 28 28 28 28 28 28 28 27 28 28 28 29 29 30 30 30 30 29 29 29
27 28 28 29 30 31 31 32 33 33 34 35 36 39 42 45 47 48 48 47 46 46 45 46 47 48 46 44 43 42 41 40 40 39 39 39 39 38 37 36 35 32 30 28 27 26 25 24 24 24 24 23 23 23 24 25 26 27 27 27 27 27 28 28 28 28 28 27 27 27 28 28 28 28 27 27 28 28 29 29 29 29 29 29 29 30 30
26 27 27 28 29 30 30 30 31 32 33 35 36 38 42 45 46 47 47 47 46 45 44 45 47 48 47 45 43 42 41 40 39 39 39 39 39 39 38 36 34 32 30 28 27 25 24 24 24 23 22 21 22 24 26 26 26 26 25 25 25 25 25 26 26 26 26 25 26 27 27 28 28 28 27 27 27 27 27 27 27 27 28 28 28 28 28
25 25 26 26 27 28 28 29 30 31 32 34 36 38 41 44 45 45 46 46 45 43 42 44 47 47 46 46 44 42 41 41 40 39 39 39 39 38 36 35 34 33 31 30 28 26 25 25 24 21 20 21 24 26 26 25 24 24 23 23 24 24 24 24 24 24 24 24 25 26 26 26 27 27 27 27 26 26 25 25 25 25 26 26 26 26 27
23 24 24 25 25 27 28 30 31 32 33 34 36 38 40 43 45 45 44 44 43 42 42 45 47 47 46 46 45 43 42 41 39 37 37 37 37 36 35 35 34 33 32 31 29 27 26 25 21 18 19 24 26 25 24 22 22 22 22 22 22 22 22 22 22 22 22 22 22 22 23 23 24 25 25 26 26 25 24 24 25 24 24 25 26 27 27
22 22 23 24 25 27 29 30 31 31 32 33 35 37 40 43 45 45 44 43 42 42 43 45 47 47 46 46 46 44 43 42 39 36 35 35 34 35 36 36 35 33 33 33 31 28 27 23 19 18 22 26 25 22 20 20 21 21 20 20 21 21 21 21 22 22 22 21 21 21 21 22 22 23 24 25 25 25 25 25 24 24 24 25 26 27 27
21 21 22 23 25 27 29 30 30 30 32 34 35 37 39 41 43 44 43 41 41 43 44 46 47 47 46 46 45 45 43 41 39 36 34 32 32 34 35 35 34 34 33 32 31 30 27 23 21 22 25 25 21 19 19 19 19 19 20 20 21 21 22 22 22 22 23 23 23 23 22 22 23 24 24 25 25 25 26 25 24 24 24 25 25 26 26
21 21 22 24 27 28 29 29 30 30 31 33 36 37 38 39 40 41 42 41 42 43 45 46 47 47 46 46 46 45 43 41 39 38 35 33 33 33 34 34 35 34 33 32 32 29 26 22 23 26 27 24 21 20 20 19 19 20 20 21 21 21 21 22 23 24 24 24 24 24 23 23 24 24 24 25 26 26 25 25 24 24 24 23 24 24 25
21 21 23 25 27 28 28 28 29 30 31 32 35 36 37 37 38 39 40 41 42 43 44 46 47 48 48 47 47 46 44 42 40 38 37 35 34 33 33 33 35 35 35 33 30 26 23 23 26 27 26 23 21 21 20 20 20 20 20 20 20 21 21 22 23 23 24 24 24 24 23 23 22 22 22 23 24 24 24 24 23 23 22 22 22 24 24
21 23 25 26 27 28 28 27 28 30 31 32 34 36 37 37 37 38 40 42 42 43 44 46 47 48 48 47 46 46 45 43 41 40 39 37 35 34 33 33 34 35 34 31 26 22 23 26 28 26 23 21 20 20 20 20 20 20 20 20 21 21 22 23 23 23 23 23 23 23 23 21 21 21 22 22 22 22 23 23 23 22 21 21 22 22 21
22 24 26 26 27 28 29 27 27 30 32 32 33 36 38 39 39 39 41 42 42 43 45 47 48 49 49 48 46 45 45 44 42 42 41 40 38 36 36 35 35 34 30 26 22 23 26 28 26 23 21 20 19 19 19 20 20 20 20 20 21 21 22 22 22 22 22 22 22 22 21 20 21 21 22 22 21 21 22 22 22 21 21 22 21 20 19
24 25 27 26 27 29 29 28 27 29 32 33 33 35 38 40 40 40 41 42 43 44 45 47 48 49 49 48 46 45 45 44 43 43 42 42 41 39 38 36 34 29 24 22 22 26 29 28 24 22 21 20 19 19 19 18 18 19 19 19 19 19 20 20 20 20 20 20 21 20 20 20 21 21 21 21 22 22 21 21 21 22 22 21 20 19 18
25 27 27 27 27 29 30 29 27 27 30 32 34 35 37 38 39 39 40 41 42 43 45 47 49 49 49 48 46 45 44 43 43 43 42 42 42 40 37 34 30 25 22 23 26 29 28 26 24 22 22 20 19 19 18 17 17 17 17 17 17 18 18 19 19 20 20 21 21 21 21 21 21 21 20 21 22 22 20 20 21 23 22 20 18 17 17
26 28 29 29 29 30 30 30 29 28 29 31 35 37 38 38 38 40 40 41 41 43 46 48 49 49 49 48 46 45 43 42 43 42 41 40 40 38 34 29 25 24 25 28 29 29 27 25 24 23 22 21 19 18 17 16 17 17 17 17 17 17 17 18 19 19 20 21 21 20 20 20 20 20 21 21 21 21 20 20 20 21 19 18 17 16 15
27 30 32 32 31 31 30 29 30 30 29 30 33 36 37 38 39 40 40 40 41 43 46 47 48 49 48 47 44 42 40 40 40 40 38 36 36 34 30 26 25 27 30 31 29 28 26 25 24 23 22 21 19 18 17 17 17 17 17 18 18 18 18 19 19 19 19 19 18 18 19 19 19 19 20 20 20 20 20 19 18 18 17 16 15 14 13
Wind_Direction
252 251 251 252 252 252 252 250 249 252 257 255 252 253 253 251 250 246 241 238 237 239 239 227 216 213 214 217 221 225 226 227 225 221 218 217 216 216 213 211 215 219 223 223 214 199 185 170 159 155 154 154 156 161 167 172 172 168 182 197 201 203 200 198 200 199 195 199 204 210 217 224 231 234 235 234 235 238 242 247 254 260 274 289 287 274 292
251 249 250 250 250 250 250 249 246 248 253 254 251 249 249 248 247 245 239 234 231 233 234 225 214 210 211 213 215 219 222 224 225 222 221 220 220 219 215 212 214 218 222 222 208 194 182 166 157 156 155 159 167 172 175 175 170 165 164 178 207 210 201 197 198 197 195 198 204 211 217 221 225 231 233 231 230 233 238 242 249 257 273 286 284 282 304
250 248 248 248 249 249 248 247 244 244 249 252 249 247 246 245 244 243 239 232 227 229 230 224 215 211 211 211 211 214 218 222 223 221 221 221 220 220 215 212 213 216 221 220 206 191 179 168 164 162 162 171 179 179 182 177 165 164 166 173 203 211 201 197 197 196 195 197 204 213 219 220 222 226 229 229 228 234 241 247 255 263 271 279 282 288 300
250 248 247 247 246 247 247 246 242 240 245 249 248 245 244 242 242 241 239 233 226 226 227 224 217 214 213 212 210 211 216 220 221 220 221 221 220 219 217 214 213 215 219 219 208 194 183 176 173 172 172 181 186 185 183 171 162 171 178 183 198 201 196 196 195 193 192 196 205 216 224 224 223 225 225 227 230 236 244 250 257 263 265 271 281 287 294
250 248 247 246 245 245 245 244 241 238 241 245 245 244 243 241 239 239 239 235 227 224 225 224 218 216 215 215 213 211 214 218 221 220 221 221 220 220 218 216 214 215 219 221 215 203 192 185 181 181 183 186 189 189 183 172 172 179 180 186 196 194 191 193 191 188 189 198 209 218 224 225 224 224 224 224 228 235 245 252 255 259 261 267 277 283 289
251 249 247 245 244 244 244 243 240 236 237 241 243 242 242 240 238 236 236 235 230 224 223 224 221 217 216 216 216 215 215 218 221 221 221 221 221 220 219 218 217 218 220 222 219 212 202 193 188 190 192 190 191 190 183 177 182 185 185 191 194 188 187 190 191 190 191 200 211 216 219 218 216 218 220 223 228 234 245 254 257 261 265 267 272 282 294
252 249 247 245 244 243 243 243 240 235 234 238 240 240 240 239 238 236 234 234 232 226 223 223 222 218 216 217 217 218 218 219 220 221 222 222 221 221 220 221 221 221 222 225 223 217 209 204 200 199 198 196 195 192 186 185 188 189 192 198 194 188 188 191 195 195 197 203 210 215 219 219 215 215 220 225 232 239 248 258 262 266 270 272 279 294 304
253 250 247 245 243 242 243 243 240 235 232 235 237 238 239 239 237 236 233 232 232 229 224 223 223 220 218 218 218 218 219 220 221 221 221 222 223 223 222 224 225 225 226 229 228 221 214 213 211 207 203 202 199 195 192 193 194 192 195 201 199 194 192 194 198 201 205 209 212 215 221 224 221 220 224 229 238 248 255 260 263 265 269 277 289 304 308
254 252 249 246 243 242 242 243 241 236 232 232 235 236 237 238 237 236 234 233 231 229 226 225 225 222 219 219 219 218 219 221 222 222 220 221 223 224 225 226 227 228 230 234 234 226 217 218 219 215 211 208 203 200 198 198 199 201 202 203 201 197 196 198 201 206 213 217 216 217 223 228 226 223 225 233 243 255 261 264 268 270 276 285 293 300 306
255 252 250 247 244 243 243 243 242 237 232 231 232 234 235 237 237 236 234 233 232 229 226 226 228 225 221 220 220 219 219 220 222 222 220 219 221 224 227 226 228 230 231 234 236 228 216 216 220 221 222 220 212 207 205 204 207 212 212 207 202 198 199 205 208 213 223 226 222 223 228 233 235 232 230 235 245 253 260 264 268 272 279 285 289 296 304
255 252 250 248 245 243 243 243 242 238 234 231 231 232 233 235 237 236 234 233 233 231 227 225 228 227 223 222 221 220 219 220 221 222 221 219 218 221 225 226 227 230 231 236 238 227 214 212 218 222 225 223 215 212 212 210 212 215 210 205 202 202 205 214 218 220 232 239 234 232 235 239 244 245 242 243 248 254 259 262 265 269 275 280 287 297 303
253 252 250 248 246 244 243 244 243 240 236 233 232 232 232 232 235 236 234 233 232 233 230 226 227 228 225 223 222 221 220 220 220 221 221 219 217 218 222 224 225 228 233 240 234 216 205 209 215 219 222 217 209 211 214 213 211 211 207 204 204 206 211 221 229 231 237 243 242 242 244 246 248 251 251 251 252 256 261 264 267 271 274 279 286 297 302
253 251 250 249 248 246 244 244 243 241 238 235 234 234 232 230 232 234 234 233 232 233 232 227 226 228 226 224 223 221 220 221 221 221 220 219 218 217 218 220 221 223 230 235 223 202 196 206 213 216 217 212 205 207 213 213 209 206 204 204 206 213 223 231 238 241 244 247 250 251 253 254 254 254 255 255 256 257 261 265 268 271 274 280 285 290 296
254 251 250 249 249 248 246 244 244 242 239 237 235 235 233 230 229 231 233 232 231 231 232 229 227 228 227 225 223 220 220 221 221 221 221 220 218 217 216 217 218 218 222 227 220 205 197 204 211 214 215 210 205 206 210 212 208 203 202 207 212 220 231 239 242 246 249 254 257 257 256 257 257 257 257 258 258 259 261 264 268 272 276 282 283 282 287
255 252 250 249 249 248 246 245 246 244 240 238 236 236 235 231 228 228 230 231 230 230 230 229 228 228 227 226 223 220 219 219 221 222 222 220 219 218 218 218 218 217 218 221 221 212 203 204 210 213 215 213 209 209 211 212 210 206 206 213 221 227 234 241 246 250 253 255 257 259 259 259 259 259 259 260 262 263 264 266 269 273 279 282 279 276 280
254 253 251 250 249 248 245 245 246 246 242 239 236 236 236 233 229 227 227 229 229 229 228 227 228 229 228 227 224 221 218 218 220 222 222 221 220 219 219 220 219 218 217 220 221 216 208 208 212 213 216 215 212 212 214 215 215 215 214 217 224 230 235 239 243 247 250 251 255 261 264 263 260 258 258 260 262 265 266 268 271 276 281 281 278 275 276
253 252 251 250 249 249 246 243 244 246 244 241 237 235 235 234 231 227 225 226 228 228 228 227 227 228 229 228 226 222 219 218 220 222 222 222 221 220 220 220 219 219 218 220 223 219 211 210 213 214 216 218 215 213 215 216 218 222 224 224 226 228 233 237 241 244 248 252 258 264 266 263 260 258 258 260 262 264 266 270 275 280 281 280 277 274 271
254 252 251 249 249 249 247 244 243 244 244 242 239 236 234 234 232 228 225 224 225 226 227 226 226 227 228 228 227 224 220 219 220 221 222 222 222 221 221 221 220 220 220 220 223 221 215 212 214 214 215 218 219 216 216 215 216 220 226 229 230 230 232 237 241 245 251 256 261 264 266 266 264 262 263 264 265 267 270 275 280 282 281 277 273 268 263
256 254 252 249 248 249 249 246 243 243 244 243 240 237 235 234 233 230 226 223 223 225 226 225 226 227 227 227 228 225 221 219 220 220 221 222 222 222 222 221 220 220 220 219 221 223 219 215 214 215 215 219 222 221 221 221 218 217 221 227 230 233 235 239 243 247 251 255 258 261 265 270 272 272 272 272 270 271 274 278 279 279 277 269 261 256 254
256 255 253 251 249 248 249 248 245 243 243 243 241 237 235 234 233 231 227 223 222 223 224 224 225 226 226 227 228 225 222 220 219 219 220 220 222 222 222 222 221 220 219 218 219 221 219 215 215 217 218 221 224 225 226 227 226 223 224 227 232 236 239 241 245 247 249 251 255 258 264 270 275 279 283 282 276 271 271 273 272 271 266 257 250 249 249
254 253 253 251 250 248 248 248 246 244 243 242 241 238 235 234 233 231 228 224 221 222 223 222 223 224 225 226 227 225 222 220 218 218 219 219 220 221 222 222 221 221 220 218 217 219 218 216 217 219 222 225 227 227 229 230 230 231 232 233 235 239 242 243 246 248 249 250 254 259 264 269 274 279 282 282 275 266 263 264 264 262 257 251 248 248 248
253 252 250 250 249 249 248 248 247 245 243 242 241 238 234 233 233 232 228 224 221 222 222 220 221 223 223 225 226 225 222 220 218 217 218 218 219 220 221 222 221 222 221 219 218 219 219 218 219 221 223 227 229 231 232 232 234 237 239 239 239 240 242 243 245 249 251 252 256 260 264 268 274 277 276 273 268 260 257 257 257 255 253 253 253 253 254
253 251 249 247 247 247 247 247 247 245 244 242 241 239 235 231 231 231 229 225 221 221 221 219 218 220 222 224 225 224 222 220 219 217 217 218 218 219 220 221 221 222 222 221 220 220 221 221 221 222 224 227 229 232 234 235 236 239 241 242 242 241 242 244 246 250 253 256 259 263 265 267 271 270 265 260 258 254 251 250 250 251 252 254 257 258 259
253 251 249 247 245 245 246 246 247 246 245 243 241 240 236 231 230 230 229 226 221 220 220 219 216 218 221 223 224 223 221 220 218 216 217 218 217 218 220 220 220 221 223 223 222 222 222 223 223 224 226 228 229 231 233 235 237 238 239 241 242 242 243 245 247 252 257 261 262 263 264 264 264 262 257 254 251 249 248 249 251 252 254 256 258 260 262
254 252 249 247 246 245 245 246 246 246 246 244 242 241 238 233 229 228 228 226 222 220 220 218 215 216 220 222 222 222 221 220 218 216 216 217 216 216 218 218 219 220 220 222 223 224 224 225 224 225 228 230 231 232 233 233 235 237 238 238 239 240 242 245 249 254 260 262 261 259 259 258 257 255 254 253 250 248 248 250 252 255 256 258 260 262 264
254 252 251 249 248 247 246 246 246 245 245 245 243 241 239 234 229 226 226 224 222 221 220 217 214 216 218 219 221 222 220 218 216 215 216 216 216 215 215 215 217 218 217 218 221 222 223 225 226 227 230 233 236 237 235 232 232 234 235 235 236 238 241 245 249 253 255 255 254 253 253 253 253 252 252 253 253 252 251 252 254 256 258 260 262 264 265
253 252 251 251 250 249 247 246 246 245 245 245 244 242 240 236 230 225 224 223 221 221 219 215 214 215 215 217 220 221 218 217 215 214 215 216 215 215 214 213 214 215 215 216 220 221 221 224 226 227 229 231 231 230 229 227 225 226 228 230 231 233 236 240 243 245 246 247 248 249 250 251 252 252 253 255 256 256 255 255 256 257 258 260 262 264 266
252 252 251 251 251 250 248 247 247 247 245 245 244 242 241 237 231 225 222 221 220 220 216 213 214 214 213 215 219 219 216 215 215 213 214 215 214 213 213 213 213 213 211 213 218 218 216 218 221 223 223 223 216 204 204 208 210 212 215 219 223 226 230 234 238 241 243 244 245 247 249 251 253 254 255 257 256 256 255 255 255 255 256 258 260 263 265
253 253 252 252 252 251 250 249 249 248 247 246 244 241 240 237 232 225 221 219 219 218 214 211 213 213 211 214 218 216 214 214 214 212 213 214 213 212 212 210 210 210 209 211 214 212 208 208 213 215 215 217 216 203 190 191 197 202 208 214 219 224 229 232 236 239 241 242 244 247 249 252 253 254 255 255 254 253 253 253 253 253 255 257 261 264 265
253 253 252 252 252 252 252 250 249 249 249 247 244 241 238 236 231 225 220 218 218 216 212 210 213 212 210 212 216 214 212 213 212 211 212 213 213 214 213 209 207 208 211 213 215 212 208 206 208 209 209 210 212 208 201 198 202 207 213 218 221 226 230 232 233 236 239 240 242 244 247 249 250 250 250 251 252 253 253 254 256 257 259 261 264 265 265
253 253 252 253 253 252 252 251 250 249 249 248 245 240 237 234 230 225 219 217 217 215 211 209 211 211 209 211 214 213 211 211 211 210 211 212 213 215 215 212 209 208 209 211 214 216 214 211 209 210 210 210 211 211 208 207 211 215 219 222 224 226 229 231 233 235 237 239 241 243 246 247 247 246 247 250 252 254 256 258 259 261 264 266 266 267 268
253 253 253 253 253 252 252 250 249 248 247 246 243 238 234 231 227 223 218 216 215 214 210 208 209 209 208 209 212 211 209 210 210 209 209 210 212 215 215 214 213 211 208 207 209 212 213 212 211 211 211 210 210 211 211 211 215 219 221 223 225 227 229 232 234 236 238 240 241 243 245 246 246 246 248 250 253 255 257 258 259 261 262 264 266 268 269
254 255 254 254 253 251 249 247 245 244 243 242 239 235 229 226 223 219 215 214 213 212 209 206 207 207 207 208 210 210 207 207 209 208 207 208 211 214 215 215 215 215 212 209 209 210 212 212 211 211 212 212 212 212 213 214 217 221 224 226 228 229 231 234 236 238 240 242 243 244 246 247 248 248 250 252 254 255 257 259 260 261 262 264 266 268 269
255 255 253 251 249 246 244 242 241 240 239 238 235 230 225 222 219 215 213 212 211 210 208 205 205 206 206 207 208 208 206 206 207 207 206 207 209 211 214 215 216 217 216 214 214 214 215 216 215 213 214 215 215 215 216 218 220 223 226 228 231 233 235 237 239 241 242 243 244 245 247 248 249 250 252 254 255 257 258 260 261 263 264 264 266 267 269
254 252 249 246 244 242 241 239 238 237 235 232 230 225 221 217 214 211 210 209 208 207 206 204 203 204 205 206 207 207 206 206 207 206 205 207 208 210 212 214 216 217 217 216 217 217 217 219 220 219 219 218 218 218 220 223 226 228 230 232 234 236 238 240 241 243 244 246 247 248 249 250 251 251 252 255 257 258 259 260 262 264 265 265 266 266 268
249 247 244 242 240 239 238 236 233 232 230 227 224 220 216 213 210 208 207 207 206 205 204 203 202 202 204 204 205 206 205 205 206 206 206 207 208 209 211 213 215 216 216 216 217 218 219 220 222 223 224 224 223 223 224 225 228 231 232 234 236 237 239 240 242 243 245 248 250 252 253 253 254 254 255 257 259 260 260 260 261 263 265 266 267 267 269
244 242 240 238 236 234 233 231 229 228 226 224 220 216 213 210 207 205 204 205 204 203 202 201 200 201 202 203 204 204 205 205 205 205 206 207 207 209 211 213 214 216 216 216 217 219 221 222 224 226 228 228 228 228 228 228 231 232 233 234 236 237 239 241 242 244 245 247 250 252 254 255 257 258 258 259 259 260 260 261 261 263 265 267 269 270 271
240 237 235 234 232 230 229 227 225 224 223 220 216 213 210 207 204 202 202 203 202 201 200 199 198 199 201 202 203 204 204 204 204 204 206 207 208 210 212 213 214 215 215 216 217 220 222 225 227 229 231 231 231 231 231 230 232 234 234 235 236 237 239 241 243 245 246 248 250 252 255 256 257 258 259 260 260 260 261 261 262 264 266 268 271 272 272
234 232 231 230 229 227 225 223 222 220 218 215 212 209 206 204 201 200 200 201 200 199 199 197 196 197 199 201 202 203 204 204 204 204 206 207 209 211 213 214 214 215 216 217 218 220 222 225 227 229 230 230 230 231 231 231 232 234 235 236 237 238 240 242 244 246 248 250 252 254 255 256 257 258 258 258 259 259 259 260 261 263 265 267 268 268 269
229 228 228 227 226 224 222 220 218 216 213 210 207 204 203 202 199 198 199 199 198 197 196 194 193 195 197 199 201 202 203 204 204 205 206 208 210 212 213 215 215 216 217 218 219 219 222 224 225 227 228 228 228 230 230 231 232 234 236 238 239 240 242 244 246 248 250 252 254 255 256 257 259 259 259 258 257 257 257 257 258 260 261 262 264 266 268
226 227 226 225 223 220 217 215 212 210 208 206 203 201 200 199 197 196 197 197 196 195 193 192 193 194 196 198 199 201 202 203 204 204 206 209 211 212 213 215 217 217 217 219 219 219 221 224 225 226 228 229 229 230 230 231 233 235 237 239 242 243 245 247 249 250 251 252 254 255 257 258 259 259 259 259 257 256 256 256 256 257 258 260 263 266 268
224 224 223 221 218 214 212 209 207 204 202 201 199 198 198 198 195 194 194 195 193 191 190 190 192 193 195 197 199 200 201 202 203 204 207 209 211 211 212 215 216 217 218 219 219 218 221 223 222 221 225 229 230 231 232 233 235 237 239 241 244 247 249 250 251 252 251 251 251 252 254 255 256 256 257 257 258 258 257 256 256 258 260 262 264 266 267
220 220 219 215 211 208 206 204 202 200 198 197 195 195 197 197 194 192 192 191 190 189 189 190 190 192 194 197 198 199 201 202 201 202 206 209 210 211 213 214 215 216 218 219 219 219 220 219 214 214 223 229 231 232 233 235 237 239 240 242 244 246 248 250 251 252 252 250 248 248 248 249 251 252 254 255 257 257 257 257 257 259 261 263 264 266 268
217 215 212 207 204 202 200 198 197 196 196 195 192 192 193 194 193 191 190 188 187 188 188 189 189 191 194 197 198 199 201 202 201 201 204 206 207 210 212 214 215 216 218 219 220 220 218 215 213 218 225 229 231 233 235 237 238 240 241 241 241 242 244 246 247 249 250 250 249 248 246 246 247 249 251 252 254 255 256 257 258 260 262 263 265 268 269
212 208 204 201 200 198 195 194 194 193 193 192 191 190 191 192 192 190 189 187 186 186 187 188 189 190 194 196 197 199 201 201 200 200 202 203 204 207 210 212 215 217 219 220 220 219 216 214 217 224 228 230 231 233 236 237 238 239 239 240 241 241 243 244 245 247 249 251 252 252 250 249 248 249 250 252 253 254 255 257 257 258 261 263 266 268 269
208 202 197 197 197 194 191 191 191 189 188 189 190 190 190 191 191 189 188 186 185 185 187 188 189 191 194 196 197 198 199 199 199 200 201 202 203 205 207 210 213 216 218 219 218 216 215 217 222 227 230 230 231 232 233 235 237 238 238 239 240 241 243 244 245 247 249 251 253 255 254 253 253 254 254 254 254 254 255 256 257 257 260 263 265 266 268
201 196 193 194 194 191 187 187 188 186 186 188 190 189 189 189 188 186 185 184 184 185 187 188 190 192 195 197 197 197 198 198 198 199 200 201 202 205 207 209 212 215 216 216 214 212 215 220 225 228 229 229 229 229 230 233 235 237 238 239 240 240 242 243 244 245 248 250 253 254 255 254 253 252 250 250 250 250 252 255 257 257 259 262 264 266 267
196 193 191 191 190 186 184 183 184 185 187 188 188 187 186 186 184 183 182 182 183 185 187 189 191 194 196 197 197 198 198 197 198 199 200 200 202 204 206 208 211 213 212 209 207 209 216 221 224 225 225 225 225 226 229 232 234 237 239 240 241 242 242 244 245 247 249 252 255 258 260 261 259 257 256 254 252 251 252 254 256 257 258 260 263 265 266
193 190 189 187 185 183 181 178 177 183 188 188 184 183 185 184 181 179 180 181 183 186 188 189 192 194 196 196 197 198 199 198 199 200 200 201 203 203 205 207 210 209 205 202 205 211 217 220 220 220 222 223 224 226 229 232 234 237 239 240 241 242 243 244 245 247 249 251 253 256 259 259 260 261 262 262 260 258 256 254 255 255 257 258 260 261 261
190 187 183 182 181 181 179 174 172 180 189 187 181 180 183 182 179 178 179 181 184 187 189 190 193 195 196 196 197 198 198 199 201 202 202 203 204 204 205 206 206 202 199 202 208 213 216 217 217 218 221 223 225 228 230 233 236 239 240 241 242 242 243 244 245 247 248 250 253 255 257 257 257 257 258 260 259 257 254 254 255 255 255 254 254 253 254
187 182 178 177 179 180 178 173 170 176 185 186 181 179 179 178 177 178 179 181 186 190 191 192 194 195 195 196 197 198 198 200 203 205 204 204 206 207 206 203 200 198 201 207 211 214 215 215 217 219 222 224 226 228 232 236 240 242 243 243 243 243 244 245 247 248 250 252 255 257 258 258 258 257 258 258 255 250 250 255 258 255 250 246 245 247 249
184 181 180 180 180 178 175 171 170 174 180 182 180 178 176 175 176 179 180 183 187 190 192 193 195 196 196 197 198 198 198 200 204 206 206 206 207 207 205 201 199 202 206 210 212 214 214 215 217 220 222 224 227 230 235 240 242 243 244 245 246 246 246 246 248 250 252 255 256 256 255 256 256 256 257 254 248 244 248 255 256 250 243 240 241 243 245
Height
5767 5769 5770 5771 5773 5774 5776 5779 5781 5781 5781 5783 5785 5785 5786 5787 5789 5790 5791 5792 5793 5795 5796 5797 5798 5800 5801 5802 5804 5806 5807 5809 5811 5813 5814 5816 5818 5820 5822 5825 5826 5827 5828 5830 5831 5833 5834 5835 5837 5838 5839 5841 5843 5844 5845 5846 5848 5849 5850 5852 5853 5855 5857 5859 5862 5865 5868 5870 5871 5873 5874 5875 5876 5877 5879 5880 5882 5883 5883 5884 5885 5886 5887 5887 5887 5887 5888
5762 5763 5765 5767 5768 5770 5772 5774 5777 5777 5777 5779 5781 5782 5782 5784 5785 5787 5788 5789 5790 5792 5793 5794 5796 5797 5798 5800 5801 5803 5804 5806 5809 5811 5813 5815 5817 5819 5821 5823 5825 5826 5827 5829 5830 5832 5834 5835 5836 5837 5839 5840 5841 5842 5843 5844 5846 5848 5849 5851 5852 5853 5855 5857 5860 5863 5865 5867 5869 5871 5872 5874 5875 5877 5878 5879 5881 5882 5883 5883 5884 5885 5886 5886 5886 5886 5886
5757 5758 5760 5762 5763 5765 5767 5769 5772 5774 5773 5774 5777 5778 5779 5781 5782 5783 5785 5786 5787 5789 5790 5792 5793 5794 5796 5797 5799 5801 5802 5804 5807 5809 5811 5813 5815 5817 5820 5822 5823 5825 5826 5828 5830 5832 5833 5834 5836 5837 5838 5839 5840 5842 5843 5844 5845 5847 5848 5849 5850 5852 5854 5856 5858 5860 5863 5865 5868 5870 5872 5873 5874 5875 5877 5879 5880 5881 5882 5882 5883 5884 5885 5884 5885 5885 5884
5752 5754 5755 5757 5759 5761 5762 5765 5768 5770 5770 5771 5773 5774 5776 5778 5779 5780 5782 5783 5784 5786 5788 5790 5791 5792 5794 5795 5797 5798 5800 5802 5804 5807 5809 5811 5813 5815 5818 5820 5822 5823 5825 5827 5829 5831 5833 5834 5835 5836 5837 5839 5840 5842 5843 5844 5845 5846 5846 5847 5848 5850 5852 5855 5858 5861 5863 5866 5868 5869 5870 5872 5873 5874 5875 5877 5879 5880 5881 5881 5882 5882 5883 5883 5883 5883 5883
5748 5749 5751 5752 5754 5756 5758 5760 5763 5766 5767 5767 5769 5771 5772 5774 5776 5777 5779 5780 5782 5783 5785 5787 5789 5790 5792 5793 5795 5796 5798 5799 5802 5804 5806 5808 5811 5813 5816 5818 5820 5822 5824 5826 5828 5830 5832 5833 5834 5835 5836 5838 5840 5841 5843 5844 5844 5845 5845 5846 5847 5848 5851 5854 5857 5861 5864 5865 5867 5867 5869 5870 5871 5873 5874 5875 5877 5878 5879 5880 5881 5881 5881 5882 5882 5881 5882
5743 5745 5746 5748 5750 5752 5753 5755 5759 5762 5763 5763 5765 5767 5769 5770 5772 5774 5776 5777 5779 5780 5782 5785 5786 5788 5789 5791 5792 5794 5795 5797 5799 5802 5804 5806 5809 5811 5813 5816 5818 5820 5822 5824 5826 5828 5831 5832 5833 5834 5835 5837 5839 5840 5842 5843 5843 5844 5845 5845 5846 5848 5851 5854 5856 5859 5861 5863 5864 5865 5867 5868 5869 5871 5872 5874 5875 5877 5877 5878 5879 5879 5880 5880 5880 5880 5880
5740 5741 5742 5744 5746 5748 5749 5751 5754 5758 5760 5760 5761 5763 5765 5767 5769 5770 5773 5775 5776 5777 5780 5782 5784 5785 5786 5788 5790 5792 5793 5795 5797 5800 5802 5804 5807 5809 5811 5813 5816 5818 5820 5822 5824 5826 5829 5831 5832 5832 5834 5836 5837 5839 5841 5842 5842 5844 5845 5846 5846 5847 5849 5852 5855 5857 5859 5860 5862 5863 5865 5867 5868 5869 5871 5872 5874 5875 5876 5876 5877 5878 5879 5879 5879 5880 5879
5736 5737 5739 5741 5742 5744 5745 5747 5750 5754 5756 5757 5758 5760 5762 5763 5765 5767 5769 5771 5773 5774 5777 5779 5780 5782 5784 5785 5787 5790 5791 5793 5795 5797 5800 5803 5805 5807 5809 5811 5813 5816 5818 5820 5822 5824 5827 5829 5830 5831 5833 5835 5836 5838 5839 5840 5842 5843 5844 5845 5846 5847 5849 5851 5853 5855 5857 5859 5861 5862 5864 5865 5866 5868 5869 5871 5872 5873 5874 5875 5875 5876 5877 5877 5878 5878 5878
5733 5734 5736 5737 5739 5741 5741 5743 5745 5749 5752 5754 5755 5756 5758 5760 5762 5764 5766 5768 5770 5772 5773 5775 5777 5779 5781 5783 5785 5787 5789 5790 5793 5795 5798 5801 5803 5805 5807 5809 5811 5813 5816 5817 5819 5822 5825 5827 5829 5830 5832 5833 5835 5836 5838 5840 5841 5842 5843 5844 5845 5846 5848 5849 5851 5854 5856 5857 5860 5861 5863 5864 5865 5866 5867 5869 5871 5872 5872 5873 5873 5874 5875 5876 5876 5877 5876
5730 5731 5732 5734 5736 5737 5738 5739 5741 5745 5748 5750 5751 5753 5755 5757 5759 5761 5763 5765 5767 5769 5770 5772 5774 5776 5779 5780 5782 5784 5786 5788 5790 5792 5795 5798 5801 5803 5805 5807 5809 5811 5813 5815 5816 5819 5822 5824 5827 5829 5830 5832 5834 5835 5837 5839 5840 5842 5843 5844 5845 5846 5847 5849 5850 5853 5854 5856 5858 5860 5861 5862 5863 5864 5866 5868 5869 5870 5871 5871 5872 5872 5873 5874 5874 5874 5874
5726 5727 5729 5730 5732 5733 5734 5735 5737 5740 5744 5746 5747 5749 5751 5754 5755 5757 5759 5762 5764 5765 5767 5769 5771 5773 5776 5778 5779 5781 5783 5785 5787 5789 5792 5795 5798 5800 5802 5804 5807 5809 5811 5812 5813 5815 5818 5821 5824 5827 5829 5831 5833 5834 5836 5838 5839 5841 5842 5843 5844 5846 5847 5848 5850 5852 5853 5854 5856 5858 5859 5860 5861 5863 5864 5866 5867 5868 5869 5869 5870 5871 5872 5872 5873 5873 5872
5723 5724 5725 5726 5728 5729 5730 5731 5733 5736 5740 5742 5744 5746 5748 5750 5752 5754 5756 5758 5760 5762 5764 5766 5768 5770 5773 5774 5776 5778 5780 5782 5784 5787 5789 5792 5795 5797 5799 5802 5804 5806 5808 5808 5809 5811 5814 5818 5822 5824 5827 5829 5831 5833 5834 5836 5838 5839 5841 5842 5844 5845 5846 5847 5849 5851 5852 5853 5854 5856 5857 5859 5860 5861 5863 5864 5865 5866 5867 5867 5868 5869 5870 5871 5871 5871 5870
5719 5720 5721 5722 5724 5725 5726 5727 5729 5732 5735 5738 5740 5742 5744 5747 5749 5750 5753 5755 5757 5759 5761 5763 5765 5767 5769 5771 5773 5776 5778 5779 5782 5784 5786 5789 5791 5794 5796 5799 5801 5804 5805 5806 5807 5808 5811 5815 5819 5821 5824 5827 5829 5831 5833 5835 5836 5838 5839 5841 5842 5844 5845 5847 5848 5850 5851 5851 5852 5854 5856 5857 5858 5859 5860 5861 5863 5864 5864 5865 5865 5866 5867 5869 5870 5870 5869
5715 5716 5717 5718 5719 5721 5723 5724 5725 5727 5730 5734 5736 5738 5740 5743 5745 5747 5749 5751 5754 5756 5758 5760 5762 5764 5766 5768 5771 5773 5775 5777 5779 5781 5783 5785 5788 5791 5793 5796 5798 5801 5803 5805 5806 5807 5809 5812 5816 5819 5822 5825 5827 5829 5831 5833 5835 5836 5838 5839 5841 5842 5844 5845 5847 5848 5849 5850 5851 5853 5854 5854 5855 5857 5858 5859 5860 5861 5862 5863 5863 5864 5865 5867 5868 5868 5867
5710 5712 5713 5714 5715 5717 5719 5720 5721 5723 5726 5729 5732 5734 5736 5739 5741 5743 5745 5748 5750 5752 5754 5756 5758 5760 5763 5765 5767 5770 5772 5774 5776 5777 5779 5782 5785 5788 5790 5793 5795 5799 5801 5803 5804 5806 5807 5810 5813 5816 5819 5822 5824 5826 5828 5831 5833 5835 5836 5838 5839 5841 5843 5844 5845 5847 5848 5849 5850 5850 5851 5852 5853 5854 5855 5856 5857 5858 5859 5860 5861 5862 5863 5864 5865 5865 5865
5706 5707 5709 5710 5711 5712 5714 5716 5717 5718 5721 5725 5728 5730 5732 5735 5737 5739 5742 5744 5746 5749 5751 5753 5755 5757 5759 5762 5764 5767 5769 5771 5773 5774 5777 5779 5782 5785 5787 5790 5792 5795 5798 5800 5802 5803 5805 5808 5811 5813 5816 5819 5822 5824 5826 5828 5831 5833 5834 5836 5838 5839 5841 5842 5843 5845 5846 5847 5848 5848 5849 5850 5851 5852 5853 5854 5855 5855 5856 5857 5859 5860 5861 5861 5861 5861 5861
5702 5703 5704 5706 5706 5707 5710 5712 5713 5714 5717 5720 5723 5726 5728 5730 5733 5736 5738 5740 5743 5745 5747 5750 5752 5754 5756 5759 5761 5764 5766 5768 5770 5772 5774 5776 5779 5781 5784 5787 5789 5792 5795 5797 5799 5801 5804 5806 5808 5811 5814 5816 5819 5821 5823 5826 5828 5830 5832 5834 5836 5837 5838 5839 5841 5842 5844 5845 5845 5846 5846 5847 5848 5849 5850 5851 5852 5852 5853 5854 5856 5857 5857 5856 5856 5857 5857
5698 5699 5700 5702 5702 5703 5705 5707 5709 5710 5712 5715 5719 5722 5724 5726 5729 5731 5734 5737 5739 5741 5744 5747 5749 5751 5753 5756 5758 5760 5763 5765 5767 5769 5771 5773 5776 5778 5781 5783 5786 5789 5792 5794 5796 5798 5801 5803 5805 5808 5811 5813 5816 5818 5820 5823 5825 5827 5829 5831 5833 5834 5836 5837 5839 5840 5841 5842 5843 5844 5844 5845 5846 5847 5847 5848 5848 5848 5850 5852 5852 5852 5852 5852 5852 5853 5853
5693 5694 5696 5697 5698 5699 5700 5703 5705 5706 5708 5711 5714 5718 5720 5722 5725 5727 5730 5733 5735 5738 5740 5743 5745 5747 5750 5753 5755 5757 5760 5762 5764 5767 5769 5771 5773 5775 5778 5781 5783 5786 5789 5791 5793 5795 5797 5800 5802 5805 5808 5810 5813 5816 5818 5820 5822 5825 5826 5828 5830 5832 5834 5835 5836 5838 5839 5840 5841 5841 5842 5843 5844 5844 5845 5845 5845 5845 5847 5848 5848 5848 5848 5848 5849 5849 5850
5689 5690 5691 5693 5694 5695 5696 5698 5701 5702 5704 5706 5709 5713 5716 5718 5721 5723 5726 5729 5732 5734 5736 5739 5742 5744 5748 5750 5751 5754 5756 5759 5761 5764 5766 5768 5770 5772 5775 5777 5780 5783 5786 5788 5790 5792 5794 5797 5800 5803 5805 5807 5810 5813 5815 5817 5819 5821 5823 5825 5827 5829 5831 5832 5834 5835 5836 5837 5838 5839 5840 5841 5842 5842 5842 5841 5841 5842 5843 5844 5845 5845 5845 5845 5846 5846 5847
5684 5685 5687 5688 5689 5690 5691 5693 5695 5698 5700 5702 5704 5708 5712 5714 5716 5719 5722 5725 5728 5730 5732 5736 5739 5741 5744 5746 5748 5750 5753 5755 5758 5761 5763 5765 5767 5769 5771 5774 5777 5780 5782 5785 5787 5789 5791 5794 5796 5799 5802 5804 5807 5809 5812 5814 5816 5818 5820 5822 5824 5826 5828 5829 5831 5832 5834 5835 5836 5837 5838 5839 5839 5840 5840 5839 5838 5839 5840 5841 5841 5842 5842 5843 5843 5844 5844
5679 5681 5682 5683 5684 5686 5687 5688 5690 5693 5695 5697 5699 5703 5707 5710 5712 5715 5718 5721 5724 5726 5729 5733 5735 5738 5741 5743 5745 5747 5749 5752 5755 5758 5760 5762 5764 5766 5769 5771 5774 5776 5779 5782 5784 5786 5788 5791 5793 5796 5799 5801 5803 5806 5809 5811 5813 5814 5816 5818 5820 5822 5824 5826 5828 5829 5831 5832 5833 5834 5836 5836 5837 5837 5837 5837 5836 5836 5837 5838 5838 5839 5840 5840 5840 5841 5841
5674 5675 5677 5679 5680 5681 5682 5684 5685 5688 5690 5693 5695 5698 5702 5705 5708 5710 5714 5717 5720 5723 5725 5728 5732 5734 5737 5739 5741 5744 5746 5749 5751 5755 5757 5760 5762 5764 5766 5768 5771 5773 5776 5779 5781 5783 5785 5788 5790 5793 5796 5797 5800 5802 5805 5807 5809 5811 5812 5814 5816 5819 5821 5822 5824 5826 5828 5829 5830 5831 5833 5833 5834 5834 5834 5834 5834 5834 5834 5835 5836 5836 5837 5837 5837 5837 5837
5668 5670 5672 5673 5675 5676 5678 5679 5681 5683 5685 5688 5691 5693 5697 5701 5704 5706 5709 5713 5716 5718 5721 5724 5728 5731 5733 5735 5738 5741 5743 5745 5748 5752 5754 5757 5759 5761 5763 5765 5768 5770 5773 5776 5778 5780 5782 5785 5788 5791 5792 5793 5796 5798 5800 5802 5805 5807 5809 5811 5813 5815 5817 5819 5821 5822 5824 5826 5827 5828 5829 5830 5831 5831 5831 5831 5831 5831 5832 5832 5832 5833 5833 5833 5833 5833 5833
5662 5664 5666 5668 5669 5671 5673 5674 5676 5678 5680 5683 5686 5688 5691 5695 5699 5702 5705 5708 5712 5714 5716 5720 5725 5727 5729 5732 5735 5737 5739 5742 5746 5749 5751 5754 5756 5758 5760 5763 5765 5767 5769 5772 5775 5777 5779 5781 5785 5787 5787 5789 5792 5794 5795 5797 5799 5802 5805 5807 5809 5811 5814 5816 5818 5819 5821 5822 5824 5824 5825 5826 5827 5828 5828 5828 5828 5828 5828 5828 5828 5829 5829 5829 5829 5829 5829
5655 5657 5659 5662 5664 5666 5667 5669 5671 5673 5675 5678 5681 5683 5686 5690 5694 5698 5700 5704 5707 5710 5712 5717 5721 5722 5725 5729 5731 5733 5737 5740 5743 5746 5748 5750 5753 5755 5757 5760 5763 5764 5766 5768 5771 5774 5776 5778 5780 5782 5784 5786 5788 5787 5788 5791 5794 5797 5800 5803 5806 5809 5811 5813 5815 5816 5818 5819 5819 5820 5821 5822 5823 5824 5824 5824 5825 5825 5825 5825 5825 5825 5825 5825 5825 5825 5825
5649 5651 5653 5656 5657 5659 5661 5663 5665 5667 5670 5673 5676 5678 5681 5684 5689 5693 5696 5699 5703 5705 5709 5713 5716 5718 5722 5725 5727 5730 5734 5737 5740 5742 5745 5747 5750 5752 5755 5758 5760 5761 5763 5765 5768 5771 5773 5774 5777 5779 5781 5782 5782 5780 5781 5784 5788 5792 5796 5800 5803 5807 5809 5810 5812 5813 5814 5814 5816 5817 5818 5819 5819 5820 5821 5821 5821 5821 5821 5821 5821 5821 5821 5821 5821 5822 5822
5643 5645 5647 5649 5650 5652 5655 5657 5659 5662 5665 5668 5671 5673 5675 5679 5683 5688 5691 5694 5697 5701 5705 5709 5711 5714 5718 5721 5723 5727 5732 5734 5736 5739 5742 5744 5747 5749 5752 5755 5757 5759 5760 5763 5765 5768 5769 5771 5773 5775 5777 5779 5779 5778 5779 5781 5784 5788 5793 5797 5800 5803 5805 5807 5808 5809 5810 5811 5813 5814 5815 5815 5816 5817 5817 5818 5818 5818 5818 5818 5818 5818 5818 5818 5819 5819 5820
5637 5639 5641 5642 5644 5646 5648 5651 5653 5656 5659 5662 5665 5667 5670 5673 5678 5682 5686 5689 5692 5696 5701 5705 5706 5710 5715 5717 5719 5724 5728 5730 5733 5736 5738 5741 5744 5746 5749 5752 5754 5756 5758 5761 5763 5765 5766 5768 5770 5771 5773 5776 5777 5778 5779 5781 5783 5787 5790 5794 5797 5799 5801 5803 5805 5805 5807 5809 5810 5811 5812 5812 5813 5814 5814 5815 5815 5814 5814 5814 5814 5815 5815 5816 5817 5817 5817
5630 5632 5634 5635 5637 5639 5641 5644 5647 5650 5653 5655 5658 5661 5664 5667 5672 5677 5681 5685 5688 5692 5697 5700 5702 5706 5711 5713 5716 5721 5724 5727 5730 5733 5736 5738 5741 5744 5746 5749 5752 5753 5756 5758 5760 5762 5763 5765 5767 5769 5771 5773 5775 5777 5779 5781 5783 5785 5788 5791 5794 5796 5798 5800 5801 5802 5803 5805 5807 5808 5809 5810 5810 5811 5811 5811 5811 5811 5811 5812 5812 5812 5813 5814 5814 5814 5813
5623 5625 5627 5628 5630 5632 5634 5637 5640 5643 5645 5648 5651 5655 5658 5662 5667 5672 5677 5680 5683 5687 5692 5696 5698 5702 5707 5710 5713 5717 5721 5724 5727 5730 5733 5736 5738 5740 5743 5746 5749 5751 5753 5755 5757 5759 5761 5763 5765 5767 5769 5771 5773 5775 5778 5780 5781 5783 5786 5789 5791 5793 5795 5796 5798 5799 5800 5802 5803 5805 5806 5807 5808 5808 5808 5808 5808 5809 5809 5809 5810 5810 5811 5811 5811 5811 5810
5616 5618 5620 5621 5623 5625 5627 5630 5633 5636 5638 5640 5643 5647 5651 5656 5661 5666 5671 5675 5679 5683 5688 5691 5694 5698 5703 5706 5709 5713 5718 5722 5724 5728 5730 5733 5735 5737 5740 5743 5746 5748 5750 5753 5754 5757 5760 5762 5763 5765 5768 5770 5771 5773 5776 5778 5780 5782 5784 5786 5788 5790 5792 5793 5795 5796 5797 5798 5800 5801 5802 5803 5804 5804 5805 5805 5806 5806 5806 5806 5807 5808 5808 5809 5808 5807 5807
5609 5611 5612 5614 5615 5617 5620 5622 5625 5627 5630 5632 5636 5640 5644 5649 5655 5661 5666 5670 5674 5678 5683 5686 5690 5694 5698 5702 5705 5710 5715 5718 5721 5724 5728 5730 5732 5734 5737 5739 5742 5744 5747 5750 5752 5754 5757 5759 5761 5763 5765 5767 5769 5771 5773 5776 5778 5780 5782 5784 5785 5787 5789 5791 5792 5793 5794 5795 5796 5797 5798 5799 5801 5801 5802 5803 5803 5803 5803 5804 5804 5804 5805 5805 5805 5804 5804
5602 5603 5605 5606 5608 5610 5612 5615 5617 5620 5622 5625 5628 5633 5639 5644 5650 5656 5661 5665 5669 5673 5678 5682 5686 5690 5694 5698 5702 5706 5711 5715 5718 5721 5724 5727 5729 5732 5734 5737 5739 5741 5744 5747 5749 5752 5754 5756 5758 5761 5763 5764 5767 5769 5772 5774 5776 5778 5780 5781 5783 5785 5787 5788 5789 5790 5791 5792 5793 5793 5794 5796 5797 5798 5799 5799 5799 5800 5800 5801 5801 5801 5802 5802 5802 5801 5801
5595 5596 5597 5599 5601 5603 5606 5608 5611 5613 5615 5618 5622 5628 5634 5639 5644 5649 5654 5658 5663 5668 5673 5678 5682 5687 5691 5695 5699 5703 5708 5711 5715 5718 5721 5724 5727 5729 5732 5734 5736 5738 5741 5744 5747 5749 5752 5753 5755 5757 5759 5762 5764 5767 5770 5773 5774 5776 5777 5779 5781 5782 5784 5784 5785 5786 5787 5788 5789 5790 5791 5793 5794 5795 5795 5796 5796 5797 5797 5797 5798 5798 5798 5799 5799 5798 5798
5588 5589 5591 5593 5595 5597 5600 5602 5605 5607 5609 5613 5618 5623 5628 5632 5637 5643 5648 5653 5658 5664 5669 5673 5678 5682 5687 5691 5695 5699 5704 5708 5712 5715 5718 5721 5724 5727 5729 5731 5733 5736 5739 5742 5745 5747 5749 5751 5753 5755 5757 5759 5762 5765 5768 5770 5771 5773 5775 5776 5778 5779 5780 5780 5781 5782 5784 5785 5786 5787 5789 5790 5791 5791 5792 5793 5793 5794 5794 5794 5794 5794 5794 5795 5795 5795 5795
5582 5584 5586 5588 5590 5592 5595 5597 5599 5602 5605 5609 5613 5618 5622 5626 5632 5638 5643 5649 5654 5659 5664 5670 5675 5679 5683 5688 5692 5696 5700 5704 5708 5712 5715 5718 5721 5723 5726 5728 5731 5734 5737 5740 5742 5744 5747 5749 5751 5753 5755 5758 5761 5763 5765 5767 5768 5769 5771 5773 5774 5775 5776 5777 5778 5779 5781 5782 5783 5784 5786 5787 5788 5788 5789 5790 5790 5791 5791 5791 5791 5791 5791 5791 5791 5791 5792
5578 5579 5581 5583 5585 5587 5590 5592 5594 5597 5601 5605 5609 5613 5617 5622 5627 5633 5638 5644 5650 5655 5661 5666 5672 5677 5681 5685 5689 5693 5697 5701 5705 5709 5712 5715 5718 5720 5723 5725 5728 5731 5734 5737 5740 5742 5745 5747 5749 5751 5753 5756 5758 5760 5762 5764 5765 5766 5767 5769 5770 5772 5773 5774 5775 5776 5778 5779 5780 5781 5782 5783 5784 5785 5786 5786 5787 5787 5788 5788 5788 5788 5788 5788 5788 5788 5788
5573 5575 5577 5579 5581 5583 5585 5588 5590 5593 5597 5601 5605 5609 5613 5618 5624 5629 5635 5641 5647 5653 5658 5664 5669 5674 5678 5683 5687 5690 5694 5698 5702 5706 5709 5712 5715 5717 5720 5723 5726 5729 5733 5735 5738 5740 5743 5745 5747 5749 5751 5753 5756 5757 5758 5760 5761 5762 5764 5765 5767 5768 5770 5771 5772 5773 5775 5776 5778 5778 5779 5780 5780 5781 5782 5782 5783 5783 5784 5784 5784 5785 5785 5785 5785 5784 5784
5569 5571 5573 5574 5576 5579 5582 5584 5587 5590 5594 5597 5601 5605 5610 5615 5621 5627 5632 5638 5644 5650 5656 5661 5666 5670 5675 5679 5683 5687 5691 5695 5699 5702 5706 5709 5712 5714 5718 5721 5724 5727 5731 5733 5735 5738 5741 5742 5744 5746 5749 5751 5753 5753 5754 5756 5758 5759 5761 5763 5764 5765 5767 5768 5769 5771 5772 5773 5774 5775 5775 5776 5776 5777 5778 5778 5779 5780 5780 5781 5781 5782 5782 5782 5782 5781 5781
5566 5567 5569 5571 5573 5576 5578 5581 5584 5587 5591 5594 5598 5603 5608 5613 5618 5624 5629 5635 5642 5648 5654 5659 5663 5667 5672 5676 5680 5684 5688 5692 5696 5700 5703 5706 5709 5713 5716 5719 5722 5725 5728 5730 5733 5736 5738 5739 5742 5745 5747 5748 5749 5750 5751 5754 5756 5757 5759 5760 5761 5762 5764 5765 5766 5768 5769 5770 5770 5771 5771 5772 5772 5773 5774 5774 5775 5776 5777 5777 5778 5778 5778 5778 5778 5778 5778
5562 5564 5566 5568 5570 5573 5575 5578 5581 5584 5588 5592 5596 5601 5605 5610 5615 5621 5627 5633 5639 5646 5651 5655 5660 5665 5669 5673 5677 5682 5686 5689 5694 5698 5701 5704 5707 5711 5714 5717 5719 5722 5725 5727 5730 5733 5735 5737 5741 5744 5745 5744 5745 5747 5750 5752 5754 5755 5757 5758 5759 5760 5761 5762 5763 5764 5765 5766 5767 5767 5768 5768 5769 5769 5770 5770 5771 5772 5773 5773 5774 5774 5774 5775 5775 5775 5775
5559 5561 5563 5565 5567 5570 5572 5575 5579 5583 5586 5590 5594 5599 5603 5608 5613 5619 5624 5631 5638 5643 5648 5652 5657 5662 5666 5670 5675 5679 5683 5687 5692 5696 5699 5702 5706 5709 5712 5714 5717 5720 5722 5724 5727 5730 5733 5736 5740 5741 5740 5740 5743 5746 5748 5750 5751 5753 5754 5755 5756 5757 5758 5759 5760 5760 5761 5762 5763 5764 5765 5765 5765 5766 5766 5767 5767 5768 5768 5769 5770 5770 5770 5771 5771 5771 5771
5556 5558 5560 5563 5565 5567 5570 5574 5577 5581 5584 5588 5592 5597 5601 5606 5612 5618 5624 5630 5636 5641 5645 5650 5655 5660 5664 5668 5673 5677 5681 5685 5690 5694 5697 5700 5704 5706 5709 5712 5715 5717 5719 5722 5725 5728 5731 5735 5738 5738 5737 5739 5742 5744 5746 5747 5749 5750 5752 5753 5753 5754 5755 5756 5757 5757 5758 5758 5759 5760 5761 5762 5762 5763 5763 5764 5764 5765 5765 5765 5766 5767 5767 5767 5768 5768 5768
5554 5556 5558 5560 5563 5565 5569 5572 5576 5579 5583 5587 5592 5596 5601 5606 5612 5617 5623 5628 5633 5638 5642 5647 5652 5657 5661 5665 5670 5674 5679 5683 5687 5691 5694 5698 5701 5704 5706 5709 5712 5715 5717 5719 5722 5726 5730 5734 5735 5734 5735 5738 5741 5742 5744 5745 5746 5748 5749 5750 5751 5752 5753 5753 5754 5754 5755 5755 5756 5757 5758 5759 5760 5761 5761 5762 5762 5762 5762 5763 5763 5763 5764 5764 5764 5764 5764
5552 5554 5556 5559 5561 5564 5568 5572 5575 5578 5582 5587 5591 5595 5600 5605 5610 5615 5620 5626 5631 5636 5641 5646 5650 5655 5658 5662 5667 5671 5676 5680 5685 5689 5692 5695 5699 5701 5704 5707 5709 5711 5714 5717 5721 5726 5730 5731 5731 5731 5733 5736 5739 5740 5742 5743 5744 5745 5746 5747 5748 5749 5750 5750 5751 5751 5752 5752 5753 5754 5755 5756 5757 5758 5759 5759 5759 5760 5760 5760 5760 5761 5761 5761 5761 5761 5761
5551 5553 5555 5557 5560 5564 5567 5571 5575 5578 5582 5585 5589 5594 5599 5604 5609 5614 5619 5625 5630 5635 5639 5644 5648 5652 5656 5660 5665 5669 5673 5677 5682 5686 5689 5693 5696 5699 5701 5704 5706 5708 5712 5716 5722 5726 5727 5726 5727 5729 5732 5734 5736 5738 5739 5740 5741 5743 5744 5745 5745 5746 5747 5747 5748 5749 5749 5750 5750 5750 5751 5753 5753 5754 5754 5754 5755 5755 5756 5757 5758 5758 5758 5758 5758 5757 5758
5549 5551 5554 5556 5560 5563 5567 5570 5574 5578 5582 5585 5589 5594 5598 5603 5608 5614 5619 5624 5629 5633 5637 5642 5646 5650 5654 5658 5663 5667 5671 5675 5679 5682 5686 5690 5693 5695 5698 5700 5703 5707 5711 5717 5721 5723 5722 5722 5725 5728 5730 5732 5733 5735 5736 5738 5739 5740 5741 5742 5743 5743 5744 5745 5746 5746 5747 5747 5748 5748 5749 5750 5751 5751 5751 5751 5752 5752 5753 5754 5755 5755 5755 5754 5754 5754 5755
5548 5550 5553 5556 5559 5563 5566 5570 5574 5579 5582 5585 5589 5594 5599 5603 5608 5613 5618 5623 5628 5632 5635 5640 5644 5647 5651 5656 5660 5665 5669 5673 5676 5679 5683 5686 5689 5692 5695 5698 5702 5707 5713 5717 5718 5718 5718 5720 5723 5726 5728 5729 5731 5732 5734 5735 5737 5738 5739 5739 5740 5741 5742 5742 5743 5744 5744 5745 5745 5746 5746 5747 5747 5748 5749 5749 5749 5750 5750 5751 5752 5751 5751 5751 5751 5752 5752
5547 5550 5553 5556 5559 5563 5566 5570 5574 5579 5583 5586 5590 5594 5599 5604 5609 5614 5618 5622 5627 5630 5634 5637 5641 5645 5650 5654 5658 5662 5667 5671 5674 5677 5680 5684 5687 5690 5694 5698 5703 5709 5712 5713 5713 5714 5716 5719 5722 5723 5725 5727 5728 5730 5732 5733 5734 5735 5736 5737 5737 5738 5739 5740 5740 5741 5741 5741 5742 5743 5743 5743 5744 5745 5746 5746 5746 5747 5747 5748 5748 5748 5748 5748 5749 5749 5749
5547 5550 5553 5556 5559 5562 5566 5570 5574 5578 5582 5586 5590 5594 5599 5604 5609 5613 5617 5621 5625 5629 5632 5636 5639 5643 5648 5652 5656 5660 5665 5669 5672 5675 5679 5683 5686 5690 5695 5700 5705 5708 5709 5709 5709 5712 5715 5717 5719 5721 5723 5724 5726 5728 5730 5731 5732 5732 5733 5734 5734 5735 5736 5737 5737 5738 5738 5739 5740 5740 5741 5741 5742 5743 5743 5743 5743 5744 5745 5745 5745 5745 5746 5746 5746 5747 5747
5546 5550 5553 5556 5559 5562 5566 5569 5573 5577 5582 5586 5590 5594 5598 5603 5607 5611 5615 5619 5623 5627 5631 5634 5638 5642 5647 5651 5655 5660 5664 5668 5671 5675 5679 5683 5686 5691 5696 5701 5703 5704 5704 5705 5708 5710 5713 5715 5717 5719 5720 5722 5724 5725 5727 5728 5729 5730 5731 5731 5732 5733 5733 5734 5734 5735 5736 5736 5737 5738 5738 5739 5739 5740 5740 5740 5740 5741 5742 5742 5743 5743 5744 5744 5744 5744 5745